Location: Carrizalito
(10.3833°N, 67.0217°W)
Time: 09:47:02
(UTC+00:00)

Meteor 1-11 Rocket - Pass Details

Date: 04 July 2022
Orbit: 830 x 916 km, 81.2° (Epoch: 14 August)

Event Time Altitude Azimuth Distance (km) Brightness Sun altitude
Exits shadow 07:24:11 10° 126° (SE) 2,571 6.3 -36.4°
Maximum altitude 07:27:28 16° 92° (E) 2,207 6.3 -35.8°
Drops below altitude 10° 07:30:53 10° 56° (ENE) 2,599 7.0 -35.1°
Sets 07:34:21 0° 36° (NE) 3,534 7.9 -34.5°
